User: anonymous   Login
Location: Unspecified
(0.0000°N, 0.0000°E)
Time: 12:19:15
(UTC+00:00)
Language:

FO-29 - Orbit

View from above orbital plane
View from above orbital plane
View from above satellite
View from above satellite

Ground track
Ground track

The orbit data is extracted from the following two-line orbital elements,

1 24278U 96046B   19294.88466256 -.00000006 +00000-0 +33011-4 0  9997
2 24278 098.5568 071.4194 0349292 275.4768 080.6632 13.53094214144488
Epoch (UTC): 21 October 2019 21:13:54
Eccentricity: 0.0349292
inclination: 98.5568°
perigee height: 801 km
apogee height: 1321 km
right ascension of ascending node: 71.4194°
argument of perigee: 275.4768°
revolutions per day: 13.53094214
mean anomaly at epoch: 80.6632°
orbit number at epoch: 14448

The dashed part of the orbit path shows where the satellite is in the earth's shadow,  

DLR